0 HST 1 20580U 90037B 25303.02122123 .00009815 00000-0 34925-3 0 9999 2 20580 28.4669 209.8759 0002070 104.0895 255.9930 15.27218674753302 0 ISS (ZARYA) 1 25544U 98067A 25303.19892820 .00018950 00000-0 34377-3 0 9992 2 25544 51.6344 358.0397 0004876 356.3572 3.7380 15.49612377536107 0 CXO 1 25867U 99040B 25304.30481514 .00000945 00000-0 00000-0 0 9998 2 25867 52.1821 124.1649 8211418 310.5885 0.2547 0.37801472 16457